Regional Weather Roundup
Issued by NWS

Home | Current Version | Previous Version | Text Only | Print | Product List | Glossary On
Versions: 1 2 3 4 5 6 7 8 9 10 11 12 13 14 15 16 17 18 19 20 21 22 23 24 25 26 27 28 29 30 31 32 33 34 35 36 37 38 39 40 41 42 43 44 45 46 47 48 49 50
000
ASUS42 KFFC 252203
RWRGA
WEATHER ROUNDUP FOR GEORGIA
NATIONAL WEATHER SERVICE PEACHTREE CITY GA
600 PM EDT MON JUL 25 2016

NOTE: "FAIR" INDICATES FEW OR NO CLOUDS BELOW 12,000 FEET WITH NO
SIGNIFICANT WEATHER AND/OR OBSTRUCTIONS TO VISIBILITY.

* = USE WITH CAUTION. THE STATIONS MARKED WITH AN ASTERISK MAY NOT
REPORT WEATHER SUCH AS PRECIPITATION, FOG, OR THUNDER AND ARE NOT
QUALITY CONTROLLED BY NWS.

THE REMARK "TC" DENOTES TEMPERATURE READING IN DEGREES CELSIUS.

GAZ001>058-252300-
NORTH GEORGIA

CITY           SKY/WX    TMP DP  RH WIND       PRES   REMARKS
ATLANTA        MOSUNNY   95  65  37 SW8       29.98F HX  97
ATHENS         SUNNY     97  69  40 VRB6      29.98F HX 103
CHAMBLEE       MOSUNNY   95  66  38 SE7       29.98F HX  98
PEACHTREE CITY SUNNY     94  67  41 VRB6      29.98S HX  97
ROME           SUNNY     96  67  38 SW7       29.96F HX 100
WEST ATLANTA   MOSUNNY   96  67  38 VRB3      29.96F HX 100
GAINESVILLE    SUNNY     95  67  39 VRB5      30.02F HX  99
CARTERSVILLE   SUNNY     95  65  37 VRB3      29.98S HX  97


CITY           SKY/WX    TMP DP  RH WIND       PRES   REMARKS
DALTON*        PTSUNNY   86  70  58 W6        29.98F HX  90
LAWRENCEVILLE* MOSUNNY   95  72  46 VRB5      29.99F HX 103
KENNESAW*      MOSUNNY   93  70  46 CALM      29.92F HX  99
CANTON*        MOSUNNY   95  48  20 CALM      30.01S HX  91
BLAIRSVILLE*     N/A    N/A N/A N/A MISG      30.06S
$$

GAZ059>098-102>109-252300-
CENTRAL GEORGIA

CITY           SKY/WX    TMP DP  RH WIND       PRES   REMARKS
AUGUSTA-BUSH   SUNNY     96  67  38 S10       29.96F HX 100
AUGUSTA-DANIEL MOSUNNY   96  68  39 S9        29.98F HX 101
COLUMBUS       CLOUDY    90  68  48 S7        29.98S HX  94
MACON          CLOUDY    97  68  38 S13       29.96F HX 102
ROBINS AFB     CLOUDY    97  72  44 SE10      29.95F HX 105


CITY           SKY/WX    TMP DP  RH WIND       PRES   REMARKS
LAGRANGE*      CLOUDY    85  75  71 CALM      29.99F HX  93
MILLEDGEVILLE* CLOUDY    97  72  44 CALM      29.96F HX 105
$$

GAZ099>101-110>166-252300-
SOUTH GEORGIA

CITY           SKY/WX    TMP DP  RH WIND       PRES   REMARKS
SAVANNAH       MOSUNNY   91  70  49 S15       30.01F HX  96
VALDOSTA       PTSUNNY   93  69  45 VRB6      29.99S HX  98
ALMA           MOSUNNY   94  64  37 SE7       29.99S HX  95
ST SIMONS      SUNNY     89  73  59 SE14      30.02F HX  97
ALBANY         MOSUNNY   94  69  44 SE14      29.99F HX  99
BRUNSWICK      SUNNY     90  73  58 SE9G16    30.03S HX  98


CITY           SKY/WX    TMP DP  RH WIND       PRES   REMARKS
BAINBRIDGE*    SUNNY     91  72  52 SW13G18   29.99S HX  98
MOULTRIE*      SUNNY     91  68  46 S6        30.00F HX  95
VIDALIA*       SUNNY     95  66  38 SE9       29.98F HX  98
WAYCROSS*      SUNNY     97  70  40 S9        29.99S HX 103
DOUGLAS*       SUNNY     93  61  33 SE6       30.00S HX  93
$$



USA.gov is the U.S. government's official web portal to all federal, state and local government web resources and services.